Tracking 30995 objects as of 7-Jul-2025
HD Live streaming from Space Station
objects crossing your sky now

STARLINK-32114

Track STARLINK-32114 now!
10-day predictions
STARLINK-32114 is classified as:


NORAD ID: 60287
Int'l Code: 2024-132K
Perigee: 481.6 km
Apogee: 483.1 km
Inclination: 53.2 °
Period: 94.1 minutes
Semi major axis: 6853 km
RCS: Unknown
Launch date: July 28, 2024
Source: United States (US)
Launch site: AIR FORCE EASTERN TEST RANGE (AFETR)
Your satellite tracking list
STARLINK-4354
Track 1 satellite(s)




NASA's NSSDC Master Catalog

Two Line Element Set (TLE):
1 60287U 24132K   25187.24177743 -.00000729  00000-0 -12506-4 0  9991
2 60287  53.1599 117.4714 0001118 106.7760 253.3364 15.30193308 53827
Source of the keplerian elements: AFSPC